FW5487 Weather Reports


Display with metric or nautical units.
time (UTC)temp
F
wind
direction
speed
MPH
gust
MPH
rain 1hr
in
rain 24hr
in
rain mn
in
humidity
%
barometer
mb
20260507223204 68 228 9.0 15.0 0.00 0.00 0.00 42 1000.0
20260507222703 69 243 6.0 12.0 0.00 0.00 0.00 43 1000.0
20260507222204 68 238 9.0 13.0 0.00 0.00 0.00 42 1000.0
20260507221704 68 232 9.0 14.0 0.00 0.00 0.00 43 1000.0
20260507220203 68 223 6.0 14.0 0.00 0.00 0.00 43 1000.0
20260507215704 68 229 9.0 15.0 0.00 0.00 0.00 41 1000.0
20260507215204 68 233 8.0 16.0 0.00 0.00 0.00 43 1000.0
20260507214204 68 240 9.0 16.0 0.00 0.00 0.00 42 1000.0
20260507213704 68 238 7.0 13.0 0.00 0.00 0.00 40 1000.0
20260507212703 69 278 5.0 15.0 0.00 0.00 0.00 40 1000.0
20260507212203 69 259 8.0 17.0 0.00 0.00 0.00 40 1000.0
20260507211703 68 233 10.0 15.0 0.00 0.00 0.00 41 1000.0
20260507211203 68 225 12.0 17.0 0.00 0.00 0.00 40 1000.0
20260507210703 69 222 7.0 12.0 0.00 0.00 0.00 41 1000.0
20260507210203 68 270 6.0 12.0 0.00 0.00 0.00 42 1000.0
20260507205704 68 230 7.0 12.0 0.00 0.00 0.00 42 1000.0
20260507205206 68 228 9.0 16.0 0.00 0.00 0.00 40 1000.0
20260507204728 68 213 10.0 21.0 0.00 0.00 0.00 42 1000.0
20260507204204 68 245 11.0 16.0 0.00 0.00 0.00 40 1000.0
20260507203704 68 225 8.0 16.0 0.00 0.00 0.00 40 1000.0
20260507203204 68 218 8.0 18.0 0.00 0.00 0.00 42 1000.0
20260507202703 67 221 9.0 14.0 0.00 0.00 0.00 41 1000.0
20260507202203 68 219 9.0 15.0 0.00 0.00 0.00 39 1000.0
20260507201704 68 282 7.0 15.0 0.00 0.00 0.00 40 1000.0
20260507201204 68 227 7.0 15.0 0.00 0.00 0.00 41 1000.0
20260507200703 67 225 13.0 18.0 0.00 0.00 0.00 39 1000.0
20260507200203 68 266 5.0 14.0 0.00 0.00 0.00 42 1000.0
20260507195704 67 228 6.0 12.0 0.00 0.00 0.00 42 1000.0
20260507195204 67 222 7.0 15.0 0.00 0.00 0.00 41 1000.0
20260507194704 67 265 8.0 14.0 0.00 0.00 0.00 40 1000.0
20260507193704 66 230 9.0 15.0 0.00 0.00 0.00 40 1000.0
20260507193204 68 246 7.0 14.0 0.00 0.00 0.00 40 1000.0
20260507192703 67 217 12.0 16.0 0.00 0.00 0.00 40 1000.0
20260507192203 68 237 5.0 20.0 0.00 0.00 0.00 39 1000.0
20260507191704 68 226 6.0 13.0 0.00 0.00 0.00 42 1000.0
20260507190703 67 236 11.0 18.0 0.00 0.00 0.00 38 1000.0
20260507185703 67 254 9.0 16.0 0.00 0.00 0.00 38 1000.0
20260507185204 67 237 9.0 14.0 0.00 0.00 0.00 41 1000.0
20260507184704 67 267 5.0 10.0 0.00 0.00 0.00 39 1000.0
20260507183704 66 228 10.0 15.0 0.00 0.00 0.00 40 1000.0
20260507183204 66 235 6.0 12.0 0.00 0.00 0.00 40 1000.0
20260507182704 65 234 8.0 17.0 0.00 0.00 0.00 39 1000.0
20260507182203 65 222 9.0 20.0 0.00 0.00 0.00 40 1000.0
20260507181704 66 238 9.0 16.0 0.00 0.00 0.00 40 1000.0
20260507180204 66 232 10.0 15.0 0.00 0.00 0.00 39 1000.0
20260507175703 66 228 7.0 14.0 0.00 0.00 0.00 40 1000.0
20260507175204 66 251 6.0 14.0 0.00 0.00 0.00 41 1000.0
20260507174704 65 229 7.0 14.0 0.00 0.00 0.00 38 1000.0
20260507173704 64 218 12.0 17.0 0.00 0.00 0.00 39 1000.0
20260507173204 65 226 7.0 16.0 0.00 0.00 0.00 42 1000.0
20260507172704 64 236 9.0 15.0 0.00 0.00 0.00 42 1000.0
20260507172203 64 222 9.0 14.0 0.00 0.00 0.00 42 1000.0
20260507171703 64 224 8.0 16.0 0.00 0.00 0.00 40 1000.0
20260507171204 64 218 7.0 17.0 0.00 0.00 0.00 44 1000.0
20260507170703 63 229 8.0 13.0 0.00 0.00 0.00 39 1000.0
20260507170203 63 229 10.0 16.0 0.00 0.00 0.00 42 1000.0
20260507165704 63 223 9.0 14.0 0.00 0.00 0.00 42 1000.0
20260507165203 64 240 9.0 16.0 0.00 0.00 0.00 42 1000.0
20260507164703 63 216 7.0 15.0 0.00 0.00 0.00 43 1000.0
20260507164204 63 213 7.0 13.0 0.00 0.00 0.00 41 1000.0
20260507162704 63 289 6.0 13.0 0.00 0.00 0.00 43 1000.0
20260507162203 62 223 9.0 15.0 0.00 0.00 0.00 44 1000.0
20260507161703 62 208 10.0 14.0 0.00 0.00 0.00 42 1000.0
20260507161204 62 227 7.0 16.0 0.00 0.00 0.00 44 1000.0
20260507160703 62 223 6.0 15.0 0.00 0.00 0.00 48 1000.0
20260507160203 62 239 5.0 13.0 0.00 0.00 0.00 49 1000.0
20260507155704 61 225 7.0 13.0 0.00 0.00 0.00 48 1000.0
20260507155203 61 217 7.0 13.0 0.00 0.00 0.00 50 1000.0
20260507154703 61 225 7.0 12.0 0.00 0.00 0.00 49 1000.0
20260507153704 61 220 4.0 10.0 0.00 0.00 0.00 50 1000.0
20260507153203 61 265 5.0 13.0 0.00 0.00 0.00 52 1000.0
20260507152703 60 220 7.0 12.0 0.00 0.00 0.00 49 1000.0
20260507152204 60 240 7.0 12.0 0.00 0.00 0.00 50 1000.0
20260507151703 59 226 9.0 14.0 0.00 0.00 0.00 47 1000.0
20260507151203 60 214 6.0 13.0 0.00 0.00 0.00 47 1000.0
20260507150703 59 242 7.0 15.0 0.00 0.00 0.00 48 1000.0
20260507150203 59 226 9.0 15.0 0.00 0.00 0.00 46 1000.0
20260507145204 59 224 7.0 14.0 0.00 0.00 0.00 50 1000.0
20260507144204 57 221 10.0 15.0 0.00 0.00 0.00 48 1000.0
20260507143703 57 219 9.0 15.0 0.00 0.00 0.00 52 1000.0
20260507143203 57 225 9.0 13.0 0.00 0.00 0.00 52 1000.0
20260507142703 57 219 6.0 12.0 0.00 0.00 0.00 55 1000.0
20260507142203 57 217 5.0 10.0 0.00 0.00 0.00 58 1000.0
20260507141704 56 216 7.0 10.0 0.00 0.00 0.00 58 1000.0
20260507141204 56 219 6.0 9.0 0.00 0.00 0.00 60 1000.0
20260507140704 55 228 6.0 9.0 0.00 0.00 0.00 60 1000.0
20260507140203 55 224 7.0 12.0 0.00 0.00 0.00 60 1000.0
20260507135703 55 230 6.0 8.0 0.00 0.00 0.00 60 1000.0
20260507135204 54 215 5.0 9.0 0.00 0.00 0.00 64 1000.0
20260507134704 54 207 5.0 8.0 0.00 0.00 0.00 64 1000.0
20260507134203 53 217 6.0 9.0 0.00 0.00 0.00 65 1000.0
20260507133704 53 217 6.0 8.0 0.00 0.00 0.00 64 1000.0
20260507133204 53 212 5.0 8.0 0.00 0.00 0.00 66 1000.0
20260507132704 52 225 6.0 9.0 0.00 0.00 0.00 65 1000.0
20260507132203 52 218 6.0 9.0 0.00 0.00 0.00 65 1000.0
20260507131704 51 202 6.0 8.0 0.00 0.00 0.00 66 1000.0
20260507131203 51 210 5.0 8.0 0.00 0.00 0.00 69 1000.0
20260507130704 50 224 7.0 9.0 0.00 0.00 0.00 66 1000.0
20260507130203 51 212 6.0 7.0 0.00 0.00 0.00 69 1000.0
20260507125704 50 219 6.0 9.0 0.00 0.00 0.00 68 1000.0
20260507125203 50 220 5.0 7.0 0.00 0.00 0.00 70 1000.0
20260507124704 49 220 4.0 6.0 0.00 0.00 0.00 73 1000.0
20260507124203 49 227 5.0 6.0 0.00 0.00 0.00 74 1000.0
20260507123704 48 228 4.0 7.0 0.00 0.00 0.00 74 1000.0
20260507123204 48 251 4.0 7.0 0.00 0.00 0.00 74 1000.0
20260507122705 47 219 6.0 8.0 0.00 0.00 0.00 72 1000.0
20260507122204 47 212 3.0 5.0 0.00 0.00 0.00 77 1000.0
20260507121703 47 207 5.0 7.0 0.00 0.00 0.00 76 1000.0
20260507121204 47 227 5.0 7.0 0.00 0.00 0.00 76 1000.0
20260507120704 46 217 5.0 7.0 0.00 0.00 0.00 78 1000.0
20260507120204 46 221 4.0 7.0 0.00 0.00 0.00 79 1000.0
20260507115703 46 216 3.0 5.0 0.00 0.00 0.00 82 1000.0
20260507115203 45 217 2.0 5.0 0.00 0.00 0.00 84 1000.0
20260507114704 45 205 3.0 5.0 0.00 0.00 0.00 84 1000.0
20260507114203 45 204 4.0 6.0 0.00 0.00 0.00 83 1000.0
20260507113703 45 217 3.0 6.0 0.00 0.00 0.00 84 1000.0
20260507113204 45 210 3.0 5.0 0.00 0.00 0.00 85 1000.0
20260507112704 45 209 2.0 5.0 0.00 0.00 0.00 87 1000.0
20260507112204 44 209 2.0 3.0 0.00 0.00 0.00 88 1000.0
20260507111703 44 205 1.0 2.0 0.00 0.00 0.00 89 1000.0
20260507111203 44 180 2.0 3.0 0.00 0.00 0.00 90 1000.0
20260507110704 44 181 1.0 2.0 0.00 0.00 0.00 91 1000.0
20260507110204 44 183 2.0 3.0 0.00 0.00 0.00 91 1000.0
20260507105703 44 171 3.0 5.0 0.00 0.00 0.00 91 1000.0
20260507104203 45 170 1.0 2.0 0.00 0.00 0.00 91 1000.0
20260507103704 45 166 2.0 2.0 0.00 0.00 0.00 91 1000.0
20260507103204 46 168 2.0 2.0 0.00 0.00 0.00 90 1000.0
20260507102704 46 195 2.0 3.0 0.00 0.00 0.00 90 1000.0
20260507102204 46 217 1.0 1.0 0.00 0.00 0.00 90 1000.0
20260507101204 46 228 3.0 3.0 0.00 0.00 0.00 91 1000.0
20260507100704 47 221 2.0 3.0 0.00 0.00 0.00 91 1000.0
20260507095704 47 235 2.0 3.0 0.00 0.00 0.00 91 1000.0
20260507095204 47 230 3.0 5.0 0.00 0.00 0.00 91 1000.0
20260507094703 47 245 3.0 5.0 0.00 0.00 0.00 90 1000.0
20260507094204 47 230 3.0 5.0 0.00 0.00 0.00 91 1000.0
20260507093205 47 238 3.0 5.0 0.00 0.00 0.00 91 1000.0
20260507092704 47 236 2.0 3.0 0.00 0.00 0.00 92 1000.0
20260507092204 47 237 2.0 5.0 0.00 0.00 0.00 92 1000.0
20260507090704 47 236 2.0 3.0 0.00 0.00 0.00 94 1000.0
20260507090203 47 230 2.0 3.0 0.00 0.00 0.00 94 1000.0
20260507085704 47 228 2.0 2.0 0.00 0.00 0.00 95 1000.0
20260507085203 47 219 1.0 2.0 0.00 0.00 0.00 95 1000.0
20260507084703 46 197 1.0 2.0 0.00 0.00 0.00 95 1000.0
20260507084204 46 197 1.0 2.0 0.00 0.00 0.00 95 1000.0
20260507083703 46 166 2.0 3.0 0.00 0.00 0.00 95 1000.0
20260507083203 47 162 3.0 3.0 0.00 0.00 0.00 94 1000.0
20260507082704 47 206 1.0 2.0 0.00 0.00 0.00 95 1000.0
20260507082203 47 195 0.0 0.0 0.00 0.00 0.00 95 1000.0
20260507081204 47 176 1.0 2.0 0.00 0.01 0.00 95 1000.0
20260507080704 47 210 2.0 3.0 0.00 0.01 0.00 95 1000.0
20260507080204 47 227 3.0 3.0 0.00 0.01 0.00 95 1000.0
20260507075703 47 225 2.0 2.0 0.00 0.01 0.00 95 1000.0
20260507075203 47 204 2.0 2.0 0.00 0.01 0.00 94 1000.0
20260507074704 47 181 2.0 3.0 0.00 0.01 0.00 94 1000.0
20260507074204 47 168 3.0 3.0 0.00 0.01 0.00 93 1000.0
20260507073703 48 171 2.0 2.0 0.00 0.01 0.00 93 1000.0
20260507073203 48 238 2.0 2.0 0.00 0.01 0.00 93 1000.0
20260507072704 48 223 2.0 2.0 0.00 0.01 0.00 93 1000.0
20260507072204 48 223 2.0 3.0 0.00 0.02 0.00 93 1000.0
20260507071703 48 229 2.0 3.0 0.00 0.02 0.00 93 1000.0
20260507071203 48 234 2.0 5.0 0.00 0.02 0.00 92 1000.0
20260507070704 49 259 3.0 6.0 0.00 0.03 0.00 92 1000.0
20260507065704 49 266 3.0 3.0 0.00 0.03 0.00 92 1000.0
20260507065203 49 263 2.0 3.0 0.00 0.04 0.00 91 1000.0
20260507064703 49 257 2.0 3.0 0.00 0.04 0.00 90 1000.0
20260507064204 49 235 2.0 3.0 0.00 0.05 0.00 90 1000.0
20260507063703 49 267 2.0 3.0 0.00 0.05 0.00 89 1000.0
20260507063203 50 284 2.0 3.0 0.00 0.05 0.00 89 1000.0
20260507062204 50 230 0.0 1.0 0.00 0.05 0.00 87 1000.0
20260507061704 50 254 2.0 2.0 0.00 0.06 0.00 87 1000.0
20260507060704 50 266 2.0 2.0 0.00 0.06 0.00 86 1000.0
20260507060203 50 262 1.0 2.0 0.00 0.08 0.00 85 1000.0
20260507055703 50 178 1.0 1.0 0.00 0.09 0.00 84 1000.0
20260507055204 51 184 1.0 1.0 0.00 0.10 0.00 82 1000.0
20260507054204 51 254 0.0 0.0 0.00 0.11 0.00 82 1000.0
20260507053703 51 254 0.0 2.0 0.00 0.11 0.00 83 1000.0
20260507053204 50 282 2.0 2.0 0.00 0.11 0.00 84 1000.0
20260507052204 50 283 2.0 3.0 0.00 0.11 0.00 86 1000.0
20260507051204 51 284 2.0 3.0 0.00 0.11 0.00 85 1000.0
20260507050703 52 282 2.0 3.0 0.00 0.11 0.00 83 1000.0
20260507050203 52 288 2.0 3.0 0.00 0.11 0.00 80 1000.0
20260507045703 52 280 2.0 2.0 0.00 0.11 0.11 78 1000.0
20260507045204 53 277 1.0 2.0 0.00 0.11 0.11 76 1000.0
20260507044704 53 271 0.0 2.0 0.00 0.12 0.11 75 1000.0
20260507044203 53 271 0.0 0.0 0.00 0.12 0.11 75 1000.0
20260507043703 53 271 0.0 2.0 0.00 0.12 0.11 74 1000.0
20260507043204 53 266 1.0 2.0 0.00 0.12 0.11 74 1000.0
20260507042704 53 276 1.0 2.0 0.00 0.12 0.11 73 1000.0
20260507042204 53 259 1.0 2.0 0.00 0.13 0.11 72 1000.0
20260507041703 53 285 0.0 2.0 0.00 0.14 0.11 71 1000.0
20260507041203 53 282 1.0 2.0 0.00 0.15 0.11 70 1000.0
20260507040704 53 282 0.0 1.0 0.00 0.16 0.11 69 1000.0
20260507040204 53 282 0.0 2.0 0.00 0.17 0.11 68 1000.0
20260507035703 53 280 0.0 0.0 0.00 0.18 0.11 68 1000.0
20260507035203 53 280 0.0 0.0 0.00 0.19 0.11 67 1000.0
20260507034706 54 280 0.0 0.0 0.00 0.19 0.11 66 1000.0
20260507033703 54 280 0.0 0.0 0.00 0.20 0.11 66 1000.0
20260507033204 54 280 0.0 0.0 0.00 0.21 0.11 66 1000.0
20260507032704 54 280 0.0 0.0 0.00 0.21 0.11 66 1000.0
20260507032203 54 280 0.0 2.0 0.00 0.21 0.11 66 1000.0
20260507031703 54 277 0.0 0.0 0.00 0.22 0.11 66 1000.0
20260507031204 54 277 1.0 3.0 0.00 0.22 0.11 66 1000.0
20260507030704 54 324 1.0 2.0 0.00 0.22 0.11 64 1000.0
20260507030204 54 292 0.0 1.0 0.00 0.22 0.11 61 1000.0
20260507025703 55 356 0.0 2.0 0.00 0.23 0.11 60 1000.0
20260507025203 55 352 2.0 3.0 0.00 0.23 0.11 60 1000.0
20260507024704 54 346 2.0 5.0 0.00 0.24 0.11 59 1000.0
20260507023204 55 325 2.0 3.0 0.00 0.24 0.11 60 1000.0
20260507022204 55 323 2.0 3.0 0.00 0.24 0.11 58 1000.0
20260507021204 55 328 1.0 2.0 0.00 0.24 0.11 58 1000.0
20260507020704 56 331 2.0 3.0 0.00 0.24 0.11 57 1000.0
20260507020204 56 350 1.0 3.0 0.00 0.24 0.11 56 1000.0
20260507015703 56 325 2.0 3.0 0.00 0.24 0.11 55 1000.0
20260507015203 57 333 2.0 3.0 0.00 0.24 0.11 52 1000.0
20260507014704 57 355 3.0 5.0 0.00 0.24 0.11 51 1000.0
20260507014204 57 342 2.0 8.0 0.00 0.24 0.11 50 1000.0
20260507013703 57 345 3.0 6.0 0.00 0.24 0.11 50 1000.0
20260507013203 57 3 4.0 8.0 0.00 0.24 0.11 50 1000.0
20260507012704 58 17 2.0 7.0 0.00 0.24 0.11 50 1000.0
20260507011703 58 9 1.0 5.0 0.00 0.24 0.11 50 1000.0
20260507011203 58 352 2.0 5.0 0.00 0.24 0.11 49 1000.0
20260507010704 58 357 2.0 5.0 0.00 0.24 0.11 48 1000.0
20260507010204 59 12 2.0 6.0 0.00 0.24 0.11 48 1000.0
20260507005703 59 343 3.0 8.0 0.00 0.24 0.11 47 1000.0
20260507005205 59 11 2.0 5.0 0.00 0.24 0.11 47 1000.0
20260507004704 59 22 3.0 8.0 0.00 0.24 0.11 47 1000.0
20260507003704 59 357 5.0 10.0 0.00 0.24 0.11 45 1000.0
20260507003203 60 4 5.0 9.0 0.00 0.24 0.11 45 1000.0
20260507002704 60 31 2.0 6.0 0.00 0.24 0.11 45 1000.0
20260507002204 60 14 3.0 8.0 0.00 0.24 0.11 44 1000.0
20260507001704 61 5 4.0 9.0 0.00 0.24 0.11 44 1000.0
20260507001203 61 13 2.0 7.0 0.00 0.24 0.11 44 1000.0
20260507000703 61 348 5.0 7.0 0.00 0.24 0.11 43 1000.0
20260506235704 61 348 5.0 7.0 0.00 0.24 0.11 44 1000.0
20260506235203 61 8 4.0 9.0 0.00 0.24 0.11 43 1000.0
20260506234703 61 30 5.0 10.0 0.00 0.24 0.11 42 1000.0
20260506234204 62 8 3.0 7.0 0.00 0.24 0.11 44 1000.0
20260506233704 61 8 5.0 9.0 0.00 0.24 0.11 42 1000.0
20260506232704 62 4 5.0 12.0 0.00 0.24 0.11 43 1000.0
20260506231703 62 15 5.0 10.0 0.00 0.25 0.11 42 1000.0
20260506231204 62 357 4.0 7.0 0.00 0.25 0.11 43 1000.0
20260506230703 62 14 5.0 10.0 0.00 0.25 0.11 40 1000.0
20260506230203 62 14 5.0 10.0 0.00 0.25 0.11 41 1000.0
20260506225204 62 11 5.0 10.0 0.00 0.27 0.11 42 1000.0
20260506224703 62 29 5.0 18.0 0.00 0.28 0.11 41 1000.0
20260506224204 62 16 7.0 17.0 0.00 0.28 0.11 41 1000.0
20260506223703 63 17 5.0 9.0 0.00 0.28 0.11 41 1000.0